Flag for U.S.A. Weather past 2 weeks in Montpelier, Vermont, U.S.A.

Now
63 °F

Overcast.


Feels Like: 63 °F
Forecast: 51 / 67 °F
Wind: 3 mph from Northeast

Location: Knapp State Airport

Current Time: Oct 1, 2014 at 6:56:41 PM

Latest Report: Oct 1, 2014 at 5:51 PM


Visibility: 10 mi

Pressure: 30.14 "Hg

Humidity: 68%

Dew point: 52 °F

Location of MontpelierLocation

Historic Weather in Montpelier — Graph

°F

Montpelier temperature yesterday

Maximum temperature yesterday: 61 °F (at 3:51 PM)
Minimum temperature yesterday: 50 °F (at 9:51 PM)
Average temperature yesterday: 57 °F

Past Weeks' High & Low Weather Summary

 TemperatureHumidityPressure
High78 °F (Sep 28, 1:51 PM)100% (Sep 17, 3:51 AM)30.67 "Hg (Sep 17, 3:51 AM)
Low30 °F (Sep 19, 4:51 AM)27% (Sep 19, 4:51 PM)29.55 "Hg (Sep 22, 1:51 AM)
Average54 °F82%30.17 "Hg
* Reported Sep 16 4:51 PM — Oct 1 4:51 PM, Montpelier, Weather by CustomWeather, © 2014

Note: Actual official high and low records may vary slightly from our data, if they occured in-between our weather recording intervals... More about our weather records

Advertising

Montpelier weather history for previous 24 hours

 ConditionsComfort  
Time TempWeatherWind HumidityBarometerVisibility
4:51 PM
Oct 1
63 °FOvercast.5 mph65%30.14 "Hg10 mi
3:51 PM63 °FOvercast.5 mph65%30.14 "Hg10 mi
2:51 PM64 °FOvercast.7 mph63%30.14 "Hg10 mi
1:51 PM62 °FPartly sunny.No wind67%30.14 "Hg10 mi
12:51 PM61 °FOvercast.6 mph72%30.17 "Hg10 mi
11:51 AM59 °FOvercast.5 mph78%30.19 "Hg10 mi
10:51 AM58 °FOvercast.3 mph81%30.19 "Hg10 mi
9:51 AM57 °FLow clouds.5 mph90%30.19 "Hg10 mi
8:51 AM54 °FFog.No wind100%30.18 "Hg2 mi
7:59 AM54 °FFog.No wind100%30.15 "Hg2 mi
7:46 AM54 °FFog.No wind100%30.15 "Hg2 mi
6:51 AM53 °FFog.No wind100%30.14 "Hg1 mi
5:51 AM54 °FFog.No wind97%30.11 "Hg6 mi
4:51 AM54 °FLow clouds.No wind97%30.11 "Hg8 mi
3:51 AM54 °FLow clouds.6 mph100%30.11 "Hg10 mi
2:51 AM54 °FMostly cloudy.3 mph97%30.11 "Hg7 mi
1:51 AM55 °FOvercast.No wind96%30.11 "Hg10 mi
12:51 AM53 °FLow clouds.No wind96%30.11 "Hg7 mi
11:59 PM
Sep 30
51 °FFog.No wind96%30.10 "Hg5 mi
10:51 PM51 °FFog.No wind96%30.10 "Hg6 mi
9:51 PM50 °FFog.5 mph96%30.09 "Hg4 mi
8:51 PM53 °FPassing clouds.3 mph96%30.09 "Hg10 mi
7:51 PM57 °FPassing clouds.3 mph93%30.07 "Hg10 mi
6:51 PM59 °FOvercast.3 mph87%30.06 "Hg10 mi
Weather by CustomWeather, © 2014

See weather overviewHow to use our weather pages